Cahokia, IL

11:43 AM CST on February 08, 2016 (GMT -0600)
Saint Louis Downtown

Weather History for KCPS - February, 2014

Change the Weather History Date:

Sunday, February 23, 2014

  Actual Average Record
Temperature  
Mean Temperature 32 °F -  
Max Temperature 37 °F 35 °F 70 °F (1943)
Min Temperature 27 °F 18 °F 6 °F (2015)
Degree Days  
Heating Degree Days 32    
Moisture  
Dew Point 21 °F    
Average Humidity 64    
Maximum Humidity 93    
Minimum Humidity 44    
Precipitation  
Precipitation 0.00 in - - ()
Sea Level Pressure  
Sea Level Pressure 30.23 in    
Wind  
Wind Speed 11 mph (North)    
Max Wind Speed 16 mph    
Max Gust Speed -    
Visibility 10 miles    
Events      
Averages and records for this station are not official NWS values.
T = Trace of Precipitation, MM = Missing Value Source: NWS Daily Summary

Daily Weather History Graph

Daily Weather History Graph

Search for Another Location

Airport or City:

Trip Planner

Search our weather history database for the weather conditions in past years. The results will help you decide how hot, cold, wet, or windy it might be!

Date:

Astronomy

Feb. 23, 2014 Rise Set
Actual Time 6:41 AM CST 5:47 PM CST
Civil Twilight 6:14 AM CST 6:14 PM CST
Nautical Twilight 5:43 AM CST 6:45 PM CST
Astronomical Twilight 5:12 AM CST 7:15 PM CST
Moon 1:37 AM CST (2/23) 11:52 AM CST (2/23)
Length of Visible Light 11h 59m
Length of Day
11h 06m
Last Quarter, 38% of the Moon is Illuminated
Feb 23
Last Quarter
Mar 1
New
Mar 8
First Quarter
Mar 16
Full
Mar 23
Last Quarter

Hourly Weather History & Observations

Time (CST) Temp. Windchill Dew Point Humidity Pressure Visibility Wind Dir Wind Speed Gust Speed Precip Events Conditions
12:40 AM 35.6 °F 29.2 °F 33.8 °F 93% 30.06 in 10.0 mi NNE 8.1 mph - N/A   Mostly Cloudy
12:53 AM 36.0 °F 29.6 °F 34.0 °F 93% 30.06 in 10.0 mi NNE 8.1 mph - N/A   Overcast
1:53 AM 36.0 °F 27.5 °F 33.1 °F 89% 30.07 in 10.0 mi North 12.7 mph - N/A   Overcast
2:53 AM 35.1 °F 26.4 °F 30.9 °F 85% 30.07 in 10.0 mi North 12.7 mph - N/A   Overcast
3:29 AM 33.8 °F 23.9 °F 28.4 °F 81% 30.10 in 10.0 mi North 15.0 mph - N/A   Overcast
3:53 AM 34.0 °F 25.0 °F 27.0 °F 75% 30.12 in 10.0 mi NNE 12.7 mph - N/A   Overcast
4:53 AM 32.0 °F 21.6 °F 23.0 °F 69% 30.16 in 10.0 mi North 15.0 mph - N/A   Overcast
5:24 AM 32.0 °F 21.2 °F 19.4 °F 60% 30.18 in 10.0 mi North 16.1 mph - N/A   Overcast
5:53 AM 30.9 °F 20.7 °F 19.0 °F 61% 30.20 in 10.0 mi North 13.8 mph - N/A   Overcast
6:53 AM 30.0 °F 20.5 °F 17.1 °F 59% 30.20 in 10.0 mi NNE 11.5 mph - N/A   Overcast
7:53 AM 30.0 °F 19.5 °F 17.1 °F 59% 30.24 in 10.0 mi NNE 13.8 mph - N/A   Overcast
8:53 AM 30.0 °F 20.0 °F 16.0 °F 56% 30.24 in 10.0 mi NNE 12.7 mph - N/A   Overcast
9:53 AM 30.0 °F 19.5 °F 17.1 °F 59% 30.23 in 10.0 mi North 13.8 mph - N/A   Overcast
10:53 AM 32.0 °F 22.1 °F 19.0 °F 59% 30.27 in 10.0 mi North 13.8 mph - N/A   Scattered Clouds
11:53 AM 33.1 °F 23.4 °F 19.0 °F 56% 30.27 in 10.0 mi North 13.8 mph - N/A   Mostly Cloudy
12:53 PM 34.0 °F 25.0 °F 19.9 °F 56% 30.25 in 10.0 mi North 12.7 mph - N/A   Partly Cloudy
1:53 PM 36.0 °F 27.5 °F 19.9 °F 52% 30.25 in 10.0 mi North 12.7 mph - N/A   Clear
2:53 PM 36.0 °F 28.0 °F 19.0 °F 50% 30.25 in 10.0 mi North 11.5 mph - N/A   Overcast
3:53 PM 37.0 °F 28.9 °F 17.1 °F 44% 30.26 in 10.0 mi North 12.7 mph - N/A   Mostly Cloudy
4:53 PM 36.0 °F 28.5 °F 18.0 °F 48% 30.27 in 10.0 mi North 10.4 mph - N/A   Clear
5:53 PM 33.1 °F 26.1 °F 17.1 °F 52% 30.30 in 10.0 mi NNE 8.1 mph - N/A   Clear
6:53 PM 32.0 °F 24.2 °F 17.1 °F 54% 30.32 in 10.0 mi North 9.2 mph - N/A   Mostly Cloudy
7:53 PM 30.9 °F 24.3 °F 18.0 °F 59% 30.33 in 10.0 mi North 6.9 mph - N/A   Mostly Cloudy
8:53 PM 28.9 °F 21.9 °F 19.0 °F 67% 30.34 in 10.0 mi North 6.9 mph - N/A   Clear
9:53 PM 28.9 °F 21.9 °F 17.1 °F 61% 30.36 in 10.0 mi NNW 6.9 mph - N/A   Clear
10:53 PM 28.0 °F 20.0 °F 18.0 °F 66% 30.36 in 10.0 mi North 8.1 mph - N/A   Clear
11:53 PM 27.0 °F 19.5 °F 18.0 °F 69% 30.35 in 10.0 mi North 6.9 mph - N/A   Clear